Regional Weather Roundup
Issued by NWS Cleveland, OH

Home | Current Version | Previous Version | Text Only | Print | Product List | Glossary On
Versions: 1 2 3 4 5 6 7 8 9 10 11 12 13 14 15 16 17 18 19 20 21 22 23 24 25 26 27 28 29 30 31 32 33 34 35 36 37 38 39 40 41 42 43 44 45 46 47 48 49 50
000
ASUS41 KCLE 172212
RWRCLE
OHIO REGIONAL WEATHER ROUNDUP
NATIONAL WEATHER SERVICE WILMINGTON, OH
500 PM EST WED JAN 17 2018

NOTE: "FAIR" INDICATES FEW OR NO CLOUDS BELOW 12,000 FEET WITH NO
SIGNIFICANT WEATHER AND/OR OBSTRUCTIONS TO VISIBILITY.

OHZ001>008-015>018-024>027-034-035-043-044-172300-
   NORTHWEST OHIO

CITY           SKY/WX    TMP DP  RH WIND       PRES   REMARKS
DEFIANCE       FAIR      20   9  62 SW12G18   30.40F WCI   8
FINDLAY        FAIR      18   8  65 SW13      30.40F WCI   5
TOLEDO EXPRESS FAIR      19  12  74 SW10      30.37F WCI   7
TOLEDO EXEC    FAIR      17  10  74 SW14      30.39F HAZE    WCI   3
LIMA           FAIR      16  10  77 SW12      30.42F WCI   3
$$

OHZ009>014-019>023-028>033-038-089-172300-
   NORTHEAST OHIO

CITY           SKY/WX    TMP DP  RH WIND       PRES   REMARKS
CLE-HOPKINS    FAIR      19   9  65 SW12      30.40F WCI   7
CLE-LAKEFRONT  FAIR      20   8  60 S16       30.37F WCI   6
CUY CO. ARPT   PTCLDY    21   9  58 SW13      30.36F WCI   9
LORAIN-ELYRIA  FAIR      16   6  65 SW14      30.39F WCI   2
ASHTABULA      FAIR      19   8  62 SW8       30.33F WCI   9
AKRON-CANTON   FAIR      11   3  70 SW10      30.38F WCI  -3
WOOSTER        FAIR      14   6  70 SW12      30.39F WCI   0
MANSFIELD      FAIR      15   8  73 SW12      30.38S WCI   2
YOUNGSTOWN     FLURRIES  14   6  70 SW13      30.35F WCI   0
$$

OHZ042-051>053-060>062-070>072-077>081-172300-
  SOUTHWEST OHIO

CITY           SKY/WX    TMP DP  RH WIND       PRES   REMARKS
CINC-COVINGTON FAIR      18  11  74 SW7       30.50S WCI   9
CINC-LUNKEN    FAIR      18  10  71 SW8       30.55S WCI   8
HAMILTON       FAIR      21  11  65 SW6       30.53S WCI  13
DAYTON         FAIR      15   9  76 W9        30.47S WCI   3
WRIGHT-PAT AFB CLEAR     18   5  56 SW12      30.47F WCI   5
DAYTON GENERAL FAIR      19   9  65 SW8       30.47F WCI   9
WILMINGTON     MOCLDY    15   9  76 W9        30.46F WCI   3
$$

OHZ036-037-039>041-045>050-054>059-063>069-073>076-082>088-172300-
  CENTRAL AND SOUTHEAST OHIO

CITY           SKY/WX    TMP DP  RH WIND       PRES   REMARKS
COLUMBUS       FAIR      13   6  74 SW8       30.48S WCI   2
OSU AIRPORT    FAIR      14   7  73 SW10      30.46S WCI   1
BOLTON FIELD   CLEAR     12   7  79 SW8       30.48S WCI   1
RICKENBACK AFB FAIR      10   5  78 SW6       30.49S WCI   1
NEWARK         FAIR      10   3  73 W9        30.46S WCI  -3
MARION         FAIR      14   7  73 S9        30.43S WCI   2
LANCASTER      FAIR      11   4  73 W7        30.48F WCI   0
ZANESVILLE     FAIR      12   4  70 W8        30.46S WCI   0
NEW PHILLY     FAIR      12   4  70 SW6       30.45S WCI   3
$$




USA.gov is the U.S. government's official web portal to all federal, state and local government web resources and services.